Temperature
16 15 15 17 16 15 15 14 14 13 12 11 10 10 9 9 8 8 7 7 6 6 5 5 4 4 3 2 2 1 0 -1 -2 -3 -4 -3 -3 -2 -2 -3 -3 -4 -5
15 14 13 15 16 16 16 15 15 14 13 12 12 11 10 9 9 9 8 7 7 6 5 5 4 4 3 2 2 1 0 -1 -2 -4 -5 -5 -4 -5 -4 -3 -4 -4 -5
15 14 13 15 16 16 16 16 16 15 14 13 12 11 10 9 9 9 9 8 7 6 6 5 4 4 3 2 2 1 -0 -1 -3 -3 -4 -6 -4 -5 -6 -6 -5 -5 -5
15 15 15 16 17 17 17 16 16 15 15 14 13 12 12 12 12 11 11 10 9 7 6 5 5 4 3 2 2 1 0 -1 -2 -4 -4 -5 -6 -7 -7 -6 -6 -6 -6
16 16 17 17 18 17 17 17 16 16 15 15 14 13 13 13 11 11 11 10 10 9 7 6 5 4 3 3 2 1 0 -1 -2 -3 -4 -5 -6 -7 -9 -8 -6 -6 -6
16 16 17 18 18 18 18 17 17 17 16 15 15 14 14 13 12 11 11 11 10 10 8 7 5 4 3 3 2 1 -0 -1 -1 -3 -4 -5 -6 -7 -7 -8 -7 -7 -6
16 16 16 17 17 18 18 18 17 17 17 16 16 15 15 14 13 12 11 11 11 11 10 8 6 5 4 3 2 1 -0 -1 -2 -2 -3 -4 -5 -7 -7 -8 -8 -7 -7
16 15 15 16 16 17 17 17 17 17 17 16 16 16 15 14 14 13 12 11 11 11 9 8 6 5 4 3 2 1 -0 -1 -2 -2 -3 -4 -5 -6 -7 -8 -9 -9 -8
15 14 15 15 16 16 16 16 16 16 16 15 15 15 15 14 14 13 12 11 11 10 8 7 5 4 3 2 1 1 -0 -1 -1 -2 -3 -4 -4 -6 -7 -8 -9 -10 -9
14 14 14 15 15 15 15 15 15 15 15 14 14 14 14 14 13 12 12 11 10 8 7 6 4 3 2 2 1 0 -0 -1 -1 -2 -3 -4 -4 -6 -7 -8 -8 -9 -10
13 13 13 14 14 14 15 15 15 15 14 14 14 14 13 13 13 12 12 10 9 7 6 4 2 2 1 1 1 0 -0 -1 -2 -2 -3 -3 -4 -6 -6 -8 -8 -9 -10
12 12 12 13 13 13 14 14 14 14 14 13 13 13 13 13 12 12 11 10 8 6 4 3 1 0 0 0 0 -0 -1 -1 -2 -2 -3 -3 -4 -5 -6 -7 -8 -9 -9
12 12 12 12 12 12 13 13 13 13 13 13 13 13 12 12 12 11 10 9 7 6 4 3 2 1 0 -0 -0 -0 -1 -2 -2 -2 -3 -3 -5 -5 -6 -7 -8 -9 -9
11 11 11 11 11 11 12 12 12 12 12 12 12 12 12 11 10 10 9 8 6 5 3 2 1 0 -1 -1 -1 -1 -2 -2 -2 -3 -3 -4 -4 -5 -6 -7 -8 -9 -9
11 11 10 10 10 10 10 11 11 11 11 11 11 11 10 10 10 9 8 7 6 5 3 1 0 -1 -2 -2 -2 -2 -2 -3 -3 -3 -3 -4 -4 -5 -6 -7 -7 -8 -8
10 10 10 10 10 9 9 9 10 10 10 10 10 10 10 9 9 8 8 7 6 4 3 1 -0 -2 -3 -3 -3 -3 -3 -3 -3 -3 -3 -4 -4 -5 -6 -7 -8 -8 -8
10 9 9 9 9 8 8 8 8 9 9 9 9 9 9 9 8 8 7 6 5 3 2 1 -1 -2 -3 -4 -4 -4 -4 -3 -3 -4 -4 -4 -4 -5 -6 -6 -8 -8 -8
9 9 8 8 8 7 7 8 8 8 8 8 8 8 8 7 7 6 6 5 4 3 1 -0 -2 -3 -4 -5 -5 -5 -4 -4 -4 -4 -4 -5 -5 -5 -6 -7 -8 -8 -8
8 8 7 7 7 7 7 7 7 7 7 7 7 7 7 6 6 5 5 4 3 2 1 -1 -2 -4 -4 -5 -5 -5 -5 -5 -4 -4 -5 -5 -5 -5 -7 -8 -8 -8 -8
7 7 7 7 7 6 6 6 6 6 5 5 5 6 5 5 4 4 4 3 2 1 -1 -2 -3 -4 -5 -5 -5 -5 -5 -5 -5 -5 -5 -5 -5 -6 -7 -8 -8 -8 -8
7 6 6 6 7 6 6 5 5 4 4 4 4 4 4 4 3 3 3 2 0 -1 -2 -3 -4 -5 -5 -5 -5 -5 -5 -5 -5 -5 -5 -5 -5 -6 -7 -8 -8 -8 -8
6 6 6 6 6 6 5 4 4 4 3 3 3 3 3 3 2 2 2 1 -1 -2 -3 -5 -6 -6 -6 -6 -5 -6 -5 -5 -5 -5 -5 -5 -5 -6 -7 -8 -8 -8 -9
5 5 5 5 5 5 4 3 3 2 2 2 2 2 2 2 1 1 1 -1 -2 -3 -4 -6 -6 -7 -6 -6 -5 -5 -5 -5 -5 -5 -5 -6 -6 -7 -8 -8 -8 -9 -9
5 4 4 4 4 4 4 3 2 2 1 1 1 1 1 1 1 0 -0 -1 -2 -3 -4 -6 -6 -7 -7 -6 -5 -5 -5 -5 -6 -6 -6 -7 -7 -7 -7 -8 -8 -8 -9
4 4 4 3 3 3 2 2 1 1 0 0 0 -0 -0 -0 -0 -0 -1 -1 -2 -4 -5 -6 -6 -7 -7 -6 -5 -5 -5 -5 -5 -6 -6 -7 -7 -7 -8 -8 -8 -9 -9
3 3 3 2 2 1 1 2 1 0 -0 -1 -1 -1 -1 -1 -1 -1 -1 -1 -2 -3 -5 -6 -7 -7 -7 -7 -6 -5 -5 -5 -5 -6 -6 -6 -7 -7 -8 -8 -8 -9 -9
Wind_Speed
20 17 18 20 20 21 21 22 22 23 20 17 17 17 17 15 15 18 21 22 22 22 21 16 15 15 11 11 11 9 9 8 7 7 8 10 11 11 10 11 12 13 14
15 15 16 17 20 22 22 23 24 23 23 19 18 15 15 14 16 17 21 24 24 23 21 20 16 16 12 13 12 11 9 8 8 6 6 6 6 8 9 9 10 12 13
12 12 14 17 19 21 23 21 24 24 24 22 15 13 13 12 14 17 17 23 25 25 24 23 20 17 15 13 14 13 13 10 9 9 7 6 5 5 7 11 10 11 11
7 8 10 14 18 19 18 20 21 22 22 22 20 21 18 19 19 16 16 19 25 26 26 25 23 19 16 15 15 14 13 12 10 9 10 10 8 7 6 6 9 12 13
9 7 8 11 14 16 17 17 19 20 21 23 23 23 22 20 16 16 18 19 20 26 27 26 23 20 17 17 16 15 15 13 12 10 9 10 11 12 10 10 11 11 12
12 9 7 7 10 13 15 17 19 21 22 23 24 26 26 23 20 20 18 17 16 18 25 26 24 22 18 18 17 16 17 15 14 12 11 11 9 9 11 13 14 14 13
14 13 10 8 7 11 14 16 19 21 22 23 25 26 26 25 24 22 20 19 16 17 22 22 22 20 20 20 18 17 17 17 16 15 12 12 12 12 12 13 15 16 15
16 14 12 10 8 8 11 15 18 19 20 22 23 23 23 19 19 22 20 19 17 18 19 23 22 22 22 20 18 16 16 15 16 16 16 12 12 12 12 13 14 15 16
17 16 15 12 10 8 8 12 15 16 17 19 20 21 22 22 21 20 20 19 18 16 20 21 22 22 21 21 19 15 17 16 16 16 16 14 13 12 13 13 13 14 16
16 16 14 14 12 10 8 7 11 13 14 16 17 16 19 21 21 19 22 21 20 19 19 21 22 22 22 21 19 16 16 17 16 13 15 15 13 12 13 13 13 14 15
14 14 13 13 12 11 9 7 6 9 11 13 15 17 18 18 19 20 21 20 19 19 20 20 20 21 22 21 20 19 18 18 17 16 16 17 16 13 13 13 14 14 15
12 13 14 14 14 13 12 9 7 8 9 11 13 15 16 17 18 20 20 19 19 19 19 19 20 21 21 21 21 21 20 19 18 18 17 18 14 17 15 14 16 15 16
13 15 15 16 16 15 14 12 9 8 8 9 12 14 15 17 18 19 18 18 19 19 19 20 21 21 20 21 22 21 20 19 18 17 17 17 17 17 16 16 16 15 15
13 16 17 18 17 16 15 14 13 10 8 9 11 14 15 16 17 17 17 17 18 19 20 21 21 20 19 20 20 19 18 17 17 17 17 17 17 18 18 16 17 17 17
16 18 19 19 19 18 17 15 14 12 10 10 12 13 13 14 14 15 16 17 18 19 19 20 21 21 18 18 19 18 18 18 17 17 17 18 20 22 19 15 16 16 16
18 20 21 20 20 19 18 17 16 14 12 12 13 13 12 13 14 15 15 17 18 18 19 19 20 22 18 25 30 22 18 17 17 17 16 17 20 23 26 28 27 24 19
19 21 21 20 19 18 16 16 16 16 14 13 13 12 12 12 13 14 15 16 17 17 18 19 21 22 23 28 31 31 19 17 17 17 15 14 15 19 15 20 24 24 27
20 21 19 18 17 16 15 15 16 15 14 14 13 12 11 12 13 14 15 16 15 16 17 18 21 21 22 28 30 30 23 18 17 17 17 16 15 15 15 15 16 18 19
20 18 17 16 15 15 15 16 17 16 15 15 14 12 11 12 13 14 15 14 14 16 16 17 19 21 21 27 30 28 17 17 18 17 16 17 16 19 20 16 17 19 16
17 15 14 15 15 15 15 16 17 17 16 16 16 16 14 14 14 15 14 13 13 15 15 16 18 20 20 24 29 29 15 16 15 14 15 19 19 19 19 16 16 17 15
16 14 13 14 15 15 15 16 17 17 17 17 17 16 16 15 14 14 12 12 12 13 14 15 16 17 19 22 27 29 16 15 13 11 11 11 18 19 19 18 15 17 16
14 14 14 15 16 16 15 17 18 18 17 17 17 17 16 14 11 12 11 11 11 12 13 14 14 14 16 19 22 28 26 20 13 11 10 10 15 16 18 15 16 19 18
14 14 14 16 17 16 16 18 19 18 18 17 17 17 16 14 12 11 11 10 10 10 11 11 12 12 11 14 23 25 27 27 16 11 14 14 15 15 13 14 16 15 11
14 15 16 17 19 18 18 18 18 17 17 17 17 16 15 14 12 9 8 9 9 10 10 11 11 11 11 11 12 14 16 20 18 13 14 16 15 11 11 12 10 8 8
15 15 16 18 20 19 19 19 18 17 17 17 15 15 13 13 11 9 9 10 11 11 11 10 10 11 11 14 18 14 12 12 12 10 7 7 7 8 7 7 7 7 7
17 17 18 20 21 20 20 19 17 16 16 14 14 12 11 11 10 9 9 12 15 17 19 19 15 12 15 15 19 21 19 18 17 12 8 8 8 8 7 7 7 7 7
Wind_Direction
250 233 219 214 212 210 207 205 203 203 202 202 206 209 213 214 215 216 213 209 208 206 208 211 209 206 210 212 212 217 226 230 236 258 268 265 258 258 255 256 260 262 266
258 238 223 214 212 210 208 207 206 204 203 205 206 210 215 219 218 217 217 213 211 208 208 211 209 208 211 213 213 213 221 227 221 235 268 280 257 235 247 257 260 266 270
269 248 227 220 216 214 211 210 208 207 206 205 205 207 213 220 217 217 217 215 213 211 210 211 211 209 209 212 211 210 216 223 219 220 235 258 277 287 252 253 260 266 270
306 270 241 225 221 220 218 217 214 212 209 205 207 205 208 215 218 217 217 215 213 213 212 212 211 211 211 213 211 211 215 221 228 222 226 237 254 268 286 255 252 258 266
355 323 273 242 229 220 217 218 218 216 212 209 211 213 220 225 225 219 220 218 214 215 213 212 210 211 211 213 211 209 212 215 224 227 226 234 243 242 249 274 279 273 270
3 349 321 269 240 222 216 214 215 217 213 212 214 217 222 224 224 221 219 218 216 215 214 212 210 210 210 210 210 210 212 215 221 227 230 234 238 242 248 264 276 282 283
355 347 338 313 265 232 221 217 217 220 214 214 217 220 224 226 227 225 222 219 218 216 213 209 210 209 209 208 207 209 213 216 220 224 229 234 240 248 256 266 276 282 285
350 343 337 324 302 263 234 225 223 225 219 218 220 223 225 227 231 229 226 224 224 222 216 210 210 209 206 205 205 209 212 216 220 225 229 235 241 244 249 257 271 281 284
346 343 341 338 329 310 269 238 232 231 227 224 225 226 225 227 231 232 231 231 229 226 219 214 212 210 206 204 203 208 211 213 219 224 227 233 241 243 247 251 255 266 280
347 347 347 345 342 335 316 275 246 240 235 229 227 230 229 230 232 233 233 231 231 227 223 217 213 210 206 204 203 208 211 212 218 222 228 232 238 243 246 249 252 253 261
348 349 349 348 346 346 340 319 279 255 244 236 233 232 234 233 233 235 236 235 233 228 225 221 216 212 207 204 203 207 207 212 218 220 226 233 237 243 247 249 250 252 254
352 354 351 350 351 349 343 332 307 277 257 246 241 240 239 237 237 238 239 236 234 230 226 222 219 215 209 205 204 206 207 211 217 221 225 232 234 240 246 249 252 254 255
355 355 352 349 346 342 339 333 320 297 275 256 247 246 243 241 241 241 239 236 233 230 224 221 218 215 209 205 206 206 208 211 217 220 224 230 233 241 245 249 253 255 258
352 349 345 342 339 335 333 330 325 314 291 268 256 253 250 247 246 245 241 236 232 229 226 222 220 216 210 206 205 205 207 212 218 222 226 231 232 239 246 251 254 257 260
343 342 337 333 330 329 328 327 323 317 304 282 269 264 263 258 252 247 243 237 232 229 226 224 222 218 212 207 204 203 205 211 217 223 228 233 235 239 244 246 252 254 258
334 332 329 326 324 324 323 322 319 317 308 291 280 276 270 262 254 249 244 238 233 230 226 223 222 220 216 212 208 203 206 211 217 224 229 235 241 246 250 255 259 261 265
325 323 321 320 319 319 320 318 316 314 308 297 290 285 277 269 262 255 248 242 236 231 227 224 223 224 221 216 213 209 205 212 217 223 229 234 237 243 245 257 265 271 273
318 317 317 316 314 315 316 314 312 310 306 301 296 291 281 274 269 260 251 244 237 232 228 226 225 226 225 220 217 214 211 217 222 225 229 237 241 241 245 252 260 263 264
313 312 311 309 308 310 315 313 309 309 307 304 303 300 286 278 273 264 256 248 239 234 229 227 226 226 226 221 219 216 214 220 226 229 232 238 245 250 253 257 263 269 269
312 313 309 307 307 312 316 310 308 308 308 309 307 305 300 288 279 272 265 253 242 236 231 230 227 227 226 222 219 216 214 220 225 229 232 237 242 249 254 257 265 272 279
313 315 312 309 309 314 313 308 308 308 310 309 307 305 301 295 287 280 269 257 245 238 233 233 230 228 228 225 221 217 210 216 222 225 229 232 239 248 256 261 266 274 284
316 317 314 310 310 313 313 308 307 310 311 309 307 305 305 302 291 281 271 257 244 238 236 234 233 229 226 226 223 220 216 214 219 224 229 232 239 249 259 265 271 281 290
314 314 311 308 308 311 311 306 307 311 310 308 306 307 307 304 296 283 272 259 242 237 237 234 233 230 223 222 221 221 221 220 218 225 230 236 244 255 264 269 277 284 285
314 314 311 308 308 311 310 306 307 309 307 305 306 308 308 306 300 284 267 255 243 237 235 234 234 232 226 218 214 214 221 224 226 230 233 238 247 254 261 269 274 271 272
309 309 307 305 306 309 307 306 308 309 306 303 304 306 305 303 299 287 268 259 248 241 237 238 236 233 230 221 209 203 205 206 212 209 213 221 231 242 247 254 262 268 274
308 308 306 306 307 308 305 305 307 306 303 302 303 305 305 303 296 292 284 261 253 254 247 243 243 242 241 237 220 212 209 205 202 200 211 221 229 239 247 257 265 271 276
Height
1497 1499 1499 1501 1503 1505 1507 1510 1512 1515 1517 1518 1519 1520 1521 1523 1524 1525 1527 1529 1530 1531 1531 1531 1531 1531 1531 1531 1530 1529 1528 1526 1525 1523 1520 1518 1516 1514 1511 1509 1506 1503 1500
1490 1492 1492 1493 1495 1497 1500 1502 1504 1507 1508 1509 1511 1513 1515 1515 1516 1517 1518 1520 1521 1522 1522 1523 1523 1523 1523 1523 1523 1522 1522 1520 1519 1518 1516 1514 1512 1507 1506 1504 1500 1497 1494
1485 1486 1486 1486 1488 1490 1492 1495 1497 1499 1501 1503 1505 1505 1506 1505 1505 1506 1507 1509 1511 1512 1513 1514 1514 1514 1514 1514 1514 1514 1514 1514 1512 1511 1511 1510 1506 1504 1500 1497 1495 1491 1488
1482 1482 1481 1482 1483 1484 1487 1489 1491 1493 1494 1495 1495 1494 1494 1493 1494 1496 1498 1499 1500 1501 1502 1504 1505 1505 1505 1505 1505 1506 1506 1506 1506 1504 1502 1502 1500 1498 1493 1491 1488 1485 1482
1482 1481 1479 1479 1479 1480 1481 1483 1484 1485 1486 1486 1486 1486 1485 1486 1488 1488 1487 1488 1488 1490 1491 1492 1493 1494 1495 1496 1496 1497 1497 1497 1498 1497 1496 1494 1493 1491 1488 1483 1482 1480 1477
1483 1481 1479 1477 1476 1475 1475 1475 1476 1476 1476 1476 1476 1476 1476 1477 1478 1477 1476 1476 1476 1477 1478 1480 1481 1482 1484 1485 1487 1487 1488 1488 1489 1489 1488 1487 1486 1485 1482 1478 1474 1472 1469
1483 1480 1477 1474 1472 1471 1469 1468 1468 1467 1467 1467 1467 1467 1467 1468 1468 1468 1467 1466 1465 1464 1465 1467 1468 1470 1472 1475 1477 1477 1478 1479 1480 1480 1479 1479 1477 1477 1475 1472 1467 1464 1460
1482 1478 1474 1471 1468 1466 1464 1462 1461 1460 1459 1458 1458 1458 1458 1458 1458 1458 1457 1455 1454 1454 1455 1455 1457 1459 1461 1464 1466 1467 1469 1470 1470 1471 1471 1470 1469 1468 1466 1465 1462 1456 1451
1480 1476 1471 1468 1465 1462 1459 1457 1455 1453 1452 1451 1450 1450 1449 1449 1448 1448 1447 1445 1444 1444 1444 1444 1445 1447 1450 1452 1455 1456 1459 1460 1461 1462 1462 1461 1460 1459 1458 1456 1454 1452 1444
1478 1474 1470 1466 1463 1460 1456 1453 1451 1448 1447 1445 1443 1442 1441 1440 1439 1438 1437 1435 1434 1434 1433 1432 1433 1435 1437 1440 1443 1446 1449 1450 1452 1453 1453 1452 1451 1451 1449 1447 1445 1442 1438
1478 1473 1470 1466 1463 1459 1456 1452 1449 1446 1443 1441 1439 1437 1435 1433 1431 1429 1427 1426 1424 1423 1422 1422 1423 1424 1426 1429 1432 1435 1438 1440 1442 1443 1443 1443 1443 1442 1440 1438 1436 1433 1430
1477 1474 1470 1466 1462 1459 1455 1451 1447 1444 1441 1438 1435 1432 1429 1426 1423 1421 1419 1416 1414 1413 1412 1412 1412 1413 1415 1418 1421 1424 1427 1429 1432 1433 1433 1434 1434 1432 1431 1429 1426 1424 1421
1477 1473 1470 1466 1462 1458 1454 1450 1445 1441 1438 1434 1430 1426 1423 1420 1416 1413 1410 1407 1405 1403 1401 1400 1399 1401 1403 1406 1409 1413 1416 1419 1422 1423 1424 1424 1424 1423 1422 1420 1417 1415 1412
1476 1473 1469 1465 1461 1456 1452 1447 1442 1438 1433 1429 1424 1420 1417 1412 1408 1404 1401 1397 1394 1392 1390 1389 1389 1389 1392 1395 1399 1403 1406 1409 1412 1413 1414 1414 1414 1413 1412 1410 1408 1406 1403
1474 1471 1467 1462 1457 1452 1447 1442 1437 1433 1428 1423 1418 1414 1409 1404 1400 1396 1392 1388 1385 1382 1380 1379 1378 1379 1380 1382 1387 1392 1396 1399 1402 1403 1404 1405 1404 1404 1402 1400 1398 1397 1394
1472 1468 1464 1459 1453 1448 1442 1437 1432 1427 1421 1416 1412 1407 1401 1396 1392 1387 1382 1378 1375 1372 1370 1368 1368 1368 1369 1372 1377 1382 1386 1389 1392 1393 1394 1395 1395 1394 1393 1392 1391 1390 1387
1469 1464 1460 1454 1449 1443 1437 1431 1426 1420 1415 1409 1404 1399 1393 1388 1383 1378 1373 1369 1365 1363 1360 1358 1358 1358 1360 1364 1368 1372 1376 1379 1382 1384 1385 1385 1385 1385 1383 1382 1380 1379 1377
1464 1459 1454 1448 1443 1437 1431 1426 1420 1414 1408 1402 1397 1391 1385 1379 1374 1369 1364 1360 1356 1353 1350 1349 1348 1349 1351 1355 1360 1364 1368 1370 1373 1375 1376 1376 1376 1376 1375 1373 1370 1367 1365
1459 1453 1448 1442 1436 1431 1425 1419 1413 1407 1400 1394 1388 1382 1376 1370 1364 1359 1355 1351 1347 1344 1341 1340 1339 1340 1342 1346 1351 1357 1359 1361 1364 1366 1367 1368 1368 1368 1367 1365 1362 1360 1357
1452 1446 1441 1436 1430 1424 1418 1411 1405 1399 1392 1386 1380 1374 1368 1362 1356 1351 1346 1342 1338 1335 1333 1331 1331 1331 1333 1337 1342 1348 1351 1353 1356 1358 1358 1359 1360 1359 1359 1358 1356 1352 1349
1446 1440 1435 1430 1424 1418 1411 1404 1397 1391 1385 1378 1372 1366 1360 1354 1348 1343 1338 1334 1331 1328 1325 1324 1323 1324 1326 1329 1334 1339 1342 1345 1348 1349 1350 1351 1352 1352 1351 1351 1349 1345 1343
1440 1435 1429 1424 1418 1412 1404 1397 1390 1384 1377 1371 1364 1358 1353 1347 1341 1335 1331 1327 1323 1320 1318 1317 1316 1316 1318 1321 1325 1330 1335 1338 1340 1342 1343 1344 1345 1344 1344 1343 1341 1339 1336
1434 1429 1423 1417 1412 1406 1399 1390 1383 1376 1369 1363 1357 1351 1346 1340 1334 1329 1324 1320 1317 1314 1312 1311 1310 1310 1311 1313 1317 1323 1328 1331 1334 1335 1337 1338 1338 1338 1337 1335 1334 1332 1329
1428 1423 1417 1410 1404 1398 1392 1384 1376 1369 1362 1356 1350 1345 1339 1334 1328 1323 1319 1314 1311 1308 1306 1305 1305 1305 1306 1307 1310 1315 1320 1324 1328 1330 1331 1332 1332 1331 1330 1329 1327 1325 1322
1423 1417 1410 1403 1396 1389 1383 1377 1370 1363 1356 1350 1344 1339 1333 1328 1322 1318 1313 1309 1305 1303 1301 1300 1300 1300 1300 1301 1305 1309 1313 1317 1321 1323 1325 1325 1325 1325 1324 1322 1321 1319 1316
1416 1409 1403 1396 1388 1381 1374 1369 1363 1356 1350 1344 1338 1333 1328 1323 1317 1312 1307 1303 1300 1297 1294 1294 1294 1293 1295 1298 1300 1304 1308 1312 1315 1318 1318 1319 1319 1319 1318 1317 1315 1314 1311